Simultaneous Nadir Overpasses (SNOs) Predictions

Prediction of SNOs between GOES-17 and NOAA-19 Satellite Orbit:

Table of predicted SNOs for the next 14.0 days since TLE Epoch: 2/1/2025
Index Date Time (GOES-17) GOES-17 Lat,Lon NOAA-19 Lat,Lon Distance(km) Time Diff (sec)
1 02/02/2025 04:47:43 0.00,-104.67 -0.54,-107.05 272.01 80
2 02/03/2025 04:32:31 0.00,-104.67 0.15,-104.00 76.13 80
3 02/04/2025 04:19:58 -0.00,-104.68 0.84,-100.96 424.24 80
4 02/05/2025 16:51:18 -0.01,-104.68 0.85,-108.49 433.52 80
5 02/06/2025 16:38:45 -0.01,-104.69 0.17,-105.44 85.44 80
6 02/07/2025 16:28:53 -0.01,-104.69 -0.51,-102.39 262.60 80
7 02/10/2025 04:47:46 0.02,-104.71 -0.46,-106.90 249.65 80
8 02/11/2025 04:32:33 0.01,-104.71 0.19,-103.85 98.68 80
9 02/12/2025 04:20:01 0.01,-104.72 0.91,-100.80 447.14 80
10 02/13/2025 16:51:21 -0.02,-104.72 0.81,-108.33 411.76 80
11 02/14/2025 16:38:48 -0.01,-104.74 0.11,-105.29 62.80 80
